Weather History for Truth Or Consequences, NM

Change the Weather History Date:

Thursday, May 14, 2009

  Actual Average Record
Temperature  
Mean Temperature 74 °F -  
Max Temperature 89 °F 83 °F 91 °F (2006)
Min Temperature 58 °F 55 °F 42 °F (2014)
Cooling Degree Days 9    
Month to date cooling degree days 158  
Year to date cooling degree days 195  
Growing Degree Days 22 (Base 50)    
Moisture  
Dew Point 21 °F    
Average Humidity 22    
Maximum Humidity 36    
Minimum Humidity 7    
Precipitation  
Precipitation 0.00 in - 0.09 in (2001)
Month to date precipitation 0.00  
Year to date precipitation 0.32  
Sea Level Pressure  
Sea Level Pressure 29.76 in    
Wind  
Wind Speed 13 mph (West)    
Max Wind Speed 25 mph    
Max Gust Speed 33 mph    
Visibility 10 miles    
Events      
T = Trace of Precipitation, MM = Missing Value Source: NWS Daily Summary

Daily Weather History Graph

Daily Weather History Graph

Search for Another Location

Airport:

Trip Planner

Search our weather history database for the weather conditions in past years. The results will help you decide how hot, cold, wet, or windy it might be!

Date:

Astronomy

May. 14, 2009 Rise Set
Actual Time 6:09 AM MDT 8:01 PM MDT
Civil Twilight 5:42 AM MDT 8:28 PM MDT
Nautical Twilight 5:09 AM MDT 9:01 PM MDT
Astronomical Twilight 4:34 AM MDT 9:37 PM MDT
Moon 12:13 AM MDT (5/14) 10:27 AM MDT (5/14)
Length of Visible Light 14h 46m
Length of Day
13h 51m
Waning Gibbous, 73% of the Moon is Illuminated
May 14
Waning Gibbous
May 17
Last Quarter
May 24
New
May 30
First Quarter
Jun 7
Full

Hourly Weather History & Observations

Time (MDT) Temp. Dew Point Humidity Pressure Visibility Wind Dir Wind Speed Gust Speed Precip Events Conditions
12:53 AM 70.0 °F 10.0 °F 10% 29.71 in 10.0 mi West 9.2 mph - N/A   Clear
1:53 AM 72.0 °F 14.0 °F 11% 29.70 in 10.0 mi WNW 11.5 mph - N/A   Clear
2:53 AM 71.1 °F 15.1 °F 12% 29.72 in 10.0 mi NW 5.8 mph - N/A   Clear
3:53 AM 68.0 °F 15.1 °F 13% 29.73 in 10.0 mi West 9.2 mph - N/A   Clear
4:53 AM 66.9 °F 19.9 °F 17% 29.76 in 10.0 mi NNE 16.1 mph 21.9 mph N/A   Clear
5:53 AM 59.0 °F 32.0 °F 36% 29.81 in 10.0 mi North 20.7 mph 31.1 mph N/A   Clear
6:53 AM 57.9 °F 28.9 °F 33% 29.84 in 10.0 mi North 20.7 mph 32.2 mph N/A   Clear
7:53 AM 61.0 °F 27.0 °F 27% 29.86 in 10.0 mi NNE 19.6 mph 27.6 mph N/A   Clear
8:53 AM 64.0 °F 26.1 °F 24% 29.88 in 10.0 mi North 20.7 mph 25.3 mph N/A   Clear
9:53 AM 69.1 °F 24.1 °F 18% 29.88 in 10.0 mi NNE 16.1 mph 24.2 mph N/A   Clear
10:53 AM 73.9 °F 25.0 °F 16% 29.85 in 10.0 mi NE 11.5 mph 19.6 mph N/A   Clear
11:53 AM 77.0 °F 26.1 °F 15% 29.84 in 10.0 mi NNE 5.8 mph - N/A   Clear
12:53 PM 80.1 °F 25.0 °F 13% 29.82 in 10.0 mi Variable 4.6 mph - N/A   Clear
1:53 PM 82.9 °F 21.9 °F 11% 29.77 in 10.0 mi Variable 5.8 mph - N/A   Clear
2:53 PM 84.9 °F 21.0 °F 10% 29.73 in 10.0 mi South 10.4 mph 18.4 mph N/A   Clear
3:53 PM 88.0 °F 21.0 °F 9% 29.70 in 10.0 mi South 16.1 mph 27.6 mph N/A   Clear
4:53 PM 88.0 °F 19.9 °F 8% 29.68 in 10.0 mi SSE 21.9 mph 29.9 mph N/A   Clear
5:53 PM 87.1 °F 19.0 °F 8% 29.68 in 10.0 mi SSE 20.7 mph 27.6 mph N/A   Clear
6:53 PM 87.1 °F 17.1 °F 8% 29.67 in 10.0 mi South 19.6 mph - N/A   Clear
7:53 PM 84.9 °F 19.0 °F 9% 29.68 in 10.0 mi SSW 13.8 mph - N/A   Clear
8:53 PM 82.0 °F 19.9 °F 10% 29.70 in 10.0 mi SW 8.1 mph - N/A   Clear
9:53 PM 77.0 °F 19.0 °F 11% 29.72 in 10.0 mi West 5.8 mph - N/A   Clear
10:53 PM 72.0 °F 18.0 °F 13% 29.73 in 10.0 mi SSE 8.1 mph - N/A   Clear
11:53 PM 75.0 °F 21.0 °F 13% 29.72 in 10.0 mi SSW 6.9 mph - N/A   Clear